owner,sensor,date,latitude,longitude,vertical_datum,sea_water_practical_salinity,qcFlag 
ENP,ioos.station.NOAA.NDBC:BOBF1:1,2018-04-01T01:00:00Z,25.0270,-80.6810,1.5,33.26,1111122 
ENP,ioos.station.NOAA.NDBC:BOBF1:1,2018-04-01T02:00:00Z,25.0270,-80.6810,1.5,33.26,1111122 
ENP,ioos.station.NOAA.NDBC:BOBF1:1,2018-04-01T03:00:00Z,25.0270,-80.6810,1.5,33.26,1111122 
ENP,ioos.station.NOAA.NDBC:BOBF1:1,2018-04-01T04:00:00Z,25.0270,-80.6810,1.5,33.26,1111122 
ENP,ioos.station.NOAA.NDBC:BOBF1:1,2018-04-01T06:00:00Z,25.0270,-80.6810,1.5,33.19,1111122 
ENP,ioos.station.NOAA.NDBC:BOBF1:1,2018-04-01T07:00:00Z,25.0270,-80.6810,1.5,33.19,1111122 
ENP,ioos.station.NOAA.NDBC:BOBF1:1,2018-04-01T08:00:00Z,25.0270,-80.6810,1.5,33.26,1111122 
ENP,ioos.station.NOAA.NDBC:BOBF1:1,2018-04-01T09:00:00Z,25.0270,-80.6810,1.5,33.19,1111122 
ENP,ioos.station.NOAA.NDBC:BOBF1:1,2018-04-01T10:00:00Z,25.0270,-80.6810,1.5,33.12,1111122 
ENP,ioos.station.NOAA.NDBC:BOBF1:1,2018-04-01T11:00:00Z,25.0270,-80.6810,1.5,33.04,1111122 
ENP,ioos.station.NOAA.NDBC:BOBF1:1,2018-04-01T12:00:00Z,25.0270,-80.6810,1.5,32.97,1111122 
ENP,ioos.station.NOAA.NDBC:BOBF1:1,2018-04-01T13:00:00Z,25.0270,-80.6810,1.5,33.04,1111122 
ENP,ioos.station.NOAA.NDBC:BOBF1:1,2018-04-01T14:00:00Z,25.0270,-80.6810,1.5,32.97,1111122 
ENP,ioos.station.NOAA.NDBC:BOBF1:1,2018-04-01T15:00:00Z,25.0270,-80.6810,1.5,33.12,1111122 
ENP,ioos.station.NOAA.NDBC:BOBF1:1,2018-04-01T16:00:00Z,25.0270,-80.6810,1.5,33.04,1111122 
ENP,ioos.station.NOAA.NDBC:BOBF1:1,2018-04-01T17:00:00Z,25.0270,-80.6810,1.5,33.26,1111122 
ENP,ioos.station.NOAA.NDBC:BOBF1:1,2018-04-01T18:00:00Z,25.0270,-80.6810,1.5,33.33,1111122 
ENP,ioos.station.NOAA.NDBC:BOBF1:1,2018-04-01T19:00:00Z,25.0270,-80.6810,1.5,33.41,1111122 
ENP,ioos.station.NOAA.NDBC:BOBF1:1,2018-04-01T20:00:00Z,25.0270,-80.6810,1.5,33.26,1111122 
ENP,ioos.station.NOAA.NDBC:BOBF1:1,2018-04-01T21:00:00Z,25.0270,-80.6810,1.5,33.04,1111122 
ENP,ioos.station.NOAA.NDBC:BOBF1:1,2018-04-01T22:00:00Z,25.0270,-80.6810,1.5,32.82,1111122 
ENP,ioos.station.NOAA.NDBC:BOBF1:1,2018-04-01T23:00:00Z,25.0270,-80.6810,1.5,32.75,1111122 
ENP,ioos.station.NOAA.NDBC:BOBF1:1,2018-04-02T00:00:00Z,25.0270,-80.6810,1.5,32.75,1111122 
ENP,ioos.station.NOAA.NDBC:BOBF1:1,2018-04-02T01:00:00Z,25.0270,-80.6810,1.5,32.82,1111122 
ENP,ioos.station.NOAA.NDBC:BOBF1:1,2018-04-02T02:00:00Z,25.0270,-80.6810,1.5,32.75,1111122 
ENP,ioos.station.NOAA.NDBC:BOBF1:1,2018-04-02T03:00:00Z,25.0270,-80.6810,1.5,32.75,1111122 
ENP,ioos.station.NOAA.NDBC:BOBF1:1,2018-04-02T04:00:00Z,25.0270,-80.6810,1.5,32.75,1111122 
ENP,ioos.station.NOAA.NDBC:BOBF1:1,2018-04-02T06:00:00Z,25.0270,-80.6810,1.5,32.97,1111122 
ENP,ioos.station.NOAA.NDBC:BOBF1:1,2018-04-02T07:00:00Z,25.0270,-80.6810,1.5,33.12,1111122 
ENP,ioos.station.NOAA.NDBC:BOBF1:1,2018-04-02T08:00:00Z,25.0270,-80.6810,1.5,33.33,1111122 
ENP,ioos.station.NOAA.NDBC:BOBF1:1,2018-04-02T09:00:00Z,25.0270,-80.6810,1.5,33.26,1111122 
ENP,ioos.station.NOAA.NDBC:BOBF1:1,2018-04-02T10:00:00Z,25.0270,-80.6810,1.5,33.26,1111122 
ENP,ioos.station.NOAA.NDBC:BOBF1:1,2018-04-02T11:00:00Z,25.0270,-80.6810,1.5,33.33,1111122 
ENP,ioos.station.NOAA.NDBC:BOBF1:1,2018-04-02T12:00:00Z,25.0270,-80.6810,1.5,33.12,1111122 
ENP,ioos.station.NOAA.NDBC:BOBF1:1,2018-04-02T14:00:00Z,25.0270,-80.6810,1.5,32.97,1111122 
ENP,ioos.station.NOAA.NDBC:BOBF1:1,2018-04-02T15:00:00Z,25.0270,-80.6810,1.5,32.97,1111122 
ENP,ioos.station.NOAA.NDBC:BOBF1:1,2018-04-02T16:00:00Z,25.0270,-80.6810,1.5,33.04,1111122 
ENP,ioos.station.NOAA.NDBC:BOBF1:1,2018-04-02T17:00:00Z,25.0270,-80.6810,1.5,33.19,1111122 
ENP,ioos.station.NOAA.NDBC:BOBF1:1,2018-04-02T18:00:00Z,25.0270,-80.6810,1.5,33.26,1111122 
ENP,ioos.station.NOAA.NDBC:BOBF1:1,2018-04-02T19:00:00Z,25.0270,-80.6810,1.5,33.26,1111122 
ENP,ioos.station.NOAA.NDBC:BOBF1:1,2018-04-02T20:00:00Z,25.0270,-80.6810,1.5,33.19,1111122 
ENP,ioos.station.NOAA.NDBC:BOBF1:1,2018-04-02T21:00:00Z,25.0270,-80.6810,1.5,33.12,1111122 
ENP,ioos.station.NOAA.NDBC:BOBF1:1,2018-04-02T22:00:00Z,25.0270,-80.6810,1.5,33.12,1111122 
ENP,ioos.station.NOAA.NDBC:BOBF1:1,2018-04-02T23:00:00Z,25.0270,-80.6810,1.5,33.04,1111122 
ENP,ioos.station.NOAA.NDBC:BOBF1:1,2018-04-03T00:00:00Z,25.0270,-80.6810,1.5,32.82,1111122 
ENP,ioos.station.NOAA.NDBC:BOBF1:1,2018-04-03T01:00:00Z,25.0270,-80.6810,1.5,32.82,1111122 
ENP,ioos.station.NOAA.NDBC:BOBF1:1,2018-04-03T02:00:00Z,25.0270,-80.6810,1.5,32.75,1111122 
ENP,ioos.station.NOAA.NDBC:BOBF1:1,2018-04-03T03:00:00Z,25.0270,-80.6810,1.5,32.75,1111122 
ENP,ioos.station.NOAA.NDBC:BOBF1:1,2018-04-03T04:00:00Z,25.0270,-80.6810,1.5,32.75,1111122 
ENP,ioos.station.NOAA.NDBC:BOBF1:1,2018-04-03T06:00:00Z,25.0270,-80.6810,1.5,33.04,1111122 
ENP,ioos.station.NOAA.NDBC:BOBF1:1,2018-04-03T07:00:00Z,25.0270,-80.6810,1.5,32.97,1111122 
ENP,ioos.station.NOAA.NDBC:BOBF1:1,2018-04-03T08:00:00Z,25.0270,-80.6810,1.5,33.04,1111122 
ENP,ioos.station.NOAA.NDBC:BOBF1:1,2018-04-03T09:00:00Z,25.0270,-80.6810,1.5,32.97,1111122 
ENP,ioos.station.NOAA.NDBC:BOBF1:1,2018-04-03T10:00:00Z,25.0270,-80.6810,1.5,32.9,1111122 
ENP,ioos.station.NOAA.NDBC:BOBF1:1,2018-04-03T11:00:00Z,25.0270,-80.6810,1.5,32.9,1111122 
ENP,ioos.station.NOAA.NDBC:BOBF1:1,2018-04-05T21:00:00Z,25.0270,-80.6810,1.5,31.95,1111122 
ENP,ioos.station.NOAA.NDBC:BOBF1:1,2018-04-05T22:00:00Z,25.0270,-80.6810,1.5,31.73,1111122 
ENP,ioos.station.NOAA.NDBC:BOBF1:1,2018-04-05T23:00:00Z,25.0270,-80.6810,1.5,31.37,1111122 
ENP,ioos.station.NOAA.NDBC:BOBF1:1,2018-04-06T00:00:00Z,25.0270,-80.6810,1.5,31.95,1111122 
ENP,ioos.station.NOAA.NDBC:BOBF1:1,2018-04-06T01:00:00Z,25.0270,-80.6810,1.5,32.31,1111122 
ENP,ioos.station.NOAA.NDBC:BOBF1:1,2018-04-06T02:00:00Z,25.0270,-80.6810,1.5,32.53,1111122 
ENP,ioos.station.NOAA.NDBC:BOBF1:1,2018-04-06T03:00:00Z,25.0270,-80.6810,1.5,32.68,1111122 
ENP,ioos.station.NOAA.NDBC:BOBF1:1,2018-04-06T04:00:00Z,25.0270,-80.6810,1.5,32.75,1111122 
ENP,ioos.station.NOAA.NDBC:BOBF1:1,2018-04-06T06:00:00Z,25.0270,-80.6810,1.5,32.82,1111122 
ENP,ioos.station.NOAA.NDBC:BOBF1:1,2018-04-06T07:00:00Z,25.0270,-80.6810,1.5,32.82,1111122 
ENP,ioos.station.NOAA.NDBC:BOBF1:1,2018-04-06T08:00:00Z,25.0270,-80.6810,1.5,32.82,1111122 
ENP,ioos.station.NOAA.NDBC:BOBF1:1,2018-04-06T09:00:00Z,25.0270,-80.6810,1.5,32.82,1111122 
ENP,ioos.station.NOAA.NDBC:BOBF1:1,2018-04-06T11:00:00Z,25.0270,-80.6810,1.5,32.9,1111122 
ENP,ioos.station.NOAA.NDBC:BOBF1:1,2018-04-06T12:00:00Z,25.0270,-80.6810,1.5,32.9,1111122 
ENP,ioos.station.NOAA.NDBC:BOBF1:1,2018-04-06T13:00:00Z,25.0270,-80.6810,1.5,32.9,1111122 
ENP,ioos.station.NOAA.NDBC:BOBF1:1,2018-04-06T14:00:00Z,25.0270,-80.6810,1.5,32.9,1111122 
ENP,ioos.station.NOAA.NDBC:BOBF1:1,2018-04-06T15:00:00Z,25.0270,-80.6810,1.5,32.9,1111122 
ENP,ioos.station.NOAA.NDBC:BOBF1:1,2018-04-06T16:00:00Z,25.0270,-80.6810,1.5,32.82,1111122 
ENP,ioos.station.NOAA.NDBC:BOBF1:1,2018-04-06T17:00:00Z,25.0270,-80.6810,1.5,32.9,1111122 
ENP,ioos.station.NOAA.NDBC:BOBF1:1,2018-04-06T18:00:00Z,25.0270,-80.6810,1.5,32.75,1111122 
ENP,ioos.station.NOAA.NDBC:BOBF1:1,2018-04-06T19:00:00Z,25.0270,-80.6810,1.5,32.75,1111122 
ENP,ioos.station.NOAA.NDBC:BOBF1:1,2018-04-06T20:00:00Z,25.0270,-80.6810,1.5,32.82,1111122 
ENP,ioos.station.NOAA.NDBC:BOBF1:1,2018-04-06T21:00:00Z,25.0270,-80.6810,1.5,32.82,1111122 
ENP,ioos.station.NOAA.NDBC:BOBF1:1,2018-04-06T22:00:00Z,25.0270,-80.6810,1.5,32.68,1111122 
ENP,ioos.station.NOAA.NDBC:BOBF1:1,2018-04-06T23:00:00Z,25.0270,-80.6810,1.5,32.6,1111122 
ENP,ioos.station.NOAA.NDBC:BOBF1:1,2018-04-07T00:00:00Z,25.0270,-80.6810,1.5,32.68,1111122 
ENP,ioos.station.NOAA.NDBC:BOBF1:1,2018-04-07T01:00:00Z,25.0270,-80.6810,1.5,32.68,1111122 
ENP,ioos.station.NOAA.NDBC:BOBF1:1,2018-04-07T02:00:00Z,25.0270,-80.6810,1.5,32.9,1111122 
ENP,ioos.station.NOAA.NDBC:BOBF1:1,2018-04-07T03:00:00Z,25.0270,-80.6810,1.5,32.9,1111122 
ENP,ioos.station.NOAA.NDBC:BOBF1:1,2018-04-07T04:00:00Z,25.0270,-80.6810,1.5,32.9,1111122 
ENP,ioos.station.NOAA.NDBC:BOBF1:1,2018-04-07T06:00:00Z,25.0270,-80.6810,1.5,32.82,1111122 
ENP,ioos.station.NOAA.NDBC:BOBF1:1,2018-04-07T08:00:00Z,25.0270,-80.6810,1.5,32.9,1111122 
ENP,ioos.station.NOAA.NDBC:BOBF1:1,2018-04-07T12:00:00Z,25.0270,-80.6810,1.5,32.97,1111122 
ENP,ioos.station.NOAA.NDBC:BOBF1:1,2018-04-07T15:00:00Z,25.0270,-80.6810,1.5,32.82,1111122 
ENP,ioos.station.NOAA.NDBC:BOBF1:1,2018-04-07T16:00:00Z,25.0270,-80.6810,1.5,32.82,1111122 
ENP,ioos.station.NOAA.NDBC:BOBF1:1,2018-04-07T17:00:00Z,25.0270,-80.6810,1.5,32.75,1111122 
ENP,ioos.station.NOAA.NDBC:BOBF1:1,2018-04-07T18:00:00Z,25.0270,-80.6810,1.5,32.68,1111122 
ENP,ioos.station.NOAA.NDBC:BOBF1:1,2018-04-07T19:00:00Z,25.0270,-80.6810,1.5,32.68,1111122 
ENP,ioos.station.NOAA.NDBC:BOBF1:1,2018-04-07T20:00:00Z,25.0270,-80.6810,1.5,32.68,1111122 
ENP,ioos.station.NOAA.NDBC:BOBF1:1,2018-04-07T21:00:00Z,25.0270,-80.6810,1.5,32.68,1111122 
ENP,ioos.station.NOAA.NDBC:BOBF1:1,2018-04-07T22:00:00Z,25.0270,-80.6810,1.5,32.68,1111122 
ENP,ioos.station.NOAA.NDBC:BOBF1:1,2018-04-07T23:00:00Z,25.0270,-80.6810,1.5,32.75,1111122 
ENP,ioos.station.NOAA.NDBC:BOBF1:1,2018-04-08T00:00:00Z,25.0270,-80.6810,1.5,32.75,1111122 
ENP,ioos.station.NOAA.NDBC:BOBF1:1,2018-04-08T01:00:00Z,25.0270,-80.6810,1.5,32.75,1111122 
ENP,ioos.station.NOAA.NDBC:BOBF1:1,2018-04-08T02:00:00Z,25.0270,-80.6810,1.5,32.75,1111122 
ENP,ioos.station.NOAA.NDBC:BOBF1:1,2018-04-08T03:00:00Z,25.0270,-80.6810,1.5,32.82,1111122 
ENP,ioos.station.NOAA.NDBC:BOBF1:1,2018-04-08T04:00:00Z,25.0270,-80.6810,1.5,32.82,1111122 
ENP,ioos.station.NOAA.NDBC:BOBF1:1,2018-04-08T06:00:00Z,25.0270,-80.6810,1.5,32.82,1111122 
ENP,ioos.station.NOAA.NDBC:BOBF1:1,2018-04-08T07:00:00Z,25.0270,-80.6810,1.5,32.82,1111122 
ENP,ioos.station.NOAA.NDBC:BOBF1:1,2018-04-08T08:00:00Z,25.0270,-80.6810,1.5,32.82,1111122 
ENP,ioos.station.NOAA.NDBC:BOBF1:1,2018-04-08T09:00:00Z,25.0270,-80.6810,1.5,32.75,1111122 
ENP,ioos.station.NOAA.NDBC:BOBF1:1,2018-04-08T10:00:00Z,25.0270,-80.6810,1.5,32.9,1111122 
ENP,ioos.station.NOAA.NDBC:BOBF1:1,2018-04-08T11:00:00Z,25.0270,-80.6810,1.5,32.9,1111122 
ENP,ioos.station.NOAA.NDBC:BOBF1:1,2018-04-08T12:00:00Z,25.0270,-80.6810,1.5,32.9,1111122 
ENP,ioos.station.NOAA.NDBC:BOBF1:1,2018-04-08T13:00:00Z,25.0270,-80.6810,1.5,33.04,1111122 
ENP,ioos.station.NOAA.NDBC:BOBF1:1,2018-04-08T14:00:00Z,25.0270,-80.6810,1.5,33.04,1111122 
ENP,ioos.station.NOAA.NDBC:BOBF1:1,2018-04-08T15:00:00Z,25.0270,-80.6810,1.5,33.04,1111122 
ENP,ioos.station.NOAA.NDBC:BOBF1:1,2018-04-08T16:00:00Z,25.0270,-80.6810,1.5,32.97,1111122 
ENP,ioos.station.NOAA.NDBC:BOBF1:1,2018-04-08T17:00:00Z,25.0270,-80.6810,1.5,32.75,1111122 
ENP,ioos.station.NOAA.NDBC:BOBF1:1,2018-04-08T18:00:00Z,25.0270,-80.6810,1.5,32.75,1111122 
ENP,ioos.station.NOAA.NDBC:BOBF1:1,2018-04-08T19:00:00Z,25.0270,-80.6810,1.5,32.75,1111122 
ENP,ioos.station.NOAA.NDBC:BOBF1:1,2018-04-08T20:00:00Z,25.0270,-80.6810,1.5,32.75,1111122 
ENP,ioos.station.NOAA.NDBC:BOBF1:1,2018-04-08T21:00:00Z,25.0270,-80.6810,1.5,32.75,1111122 
ENP,ioos.station.NOAA.NDBC:BOBF1:1,2018-04-08T22:00:00Z,25.0270,-80.6810,1.5,32.75,1111122 
ENP,ioos.station.NOAA.NDBC:BOBF1:1,2018-04-08T23:00:00Z,25.0270,-80.6810,1.5,32.9,1111122 
ENP,ioos.station.NOAA.NDBC:BOBF1:1,2018-04-09T00:00:00Z,25.0270,-80.6810,1.5,32.9,1111122 
ENP,ioos.station.NOAA.NDBC:BOBF1:1,2018-04-09T01:00:00Z,25.0270,-80.6810,1.5,32.9,1111122 
ENP,ioos.station.NOAA.NDBC:BOBF1:1,2018-04-09T02:00:00Z,25.0270,-80.6810,1.5,32.97,1111122 
ENP,ioos.station.NOAA.NDBC:BOBF1:1,2018-04-09T03:00:00Z,25.0270,-80.6810,1.5,32.97,1111122 
ENP,ioos.station.NOAA.NDBC:BOBF1:1,2018-04-09T04:00:00Z,25.0270,-80.6810,1.5,32.9,1111122 
ENP,ioos.station.NOAA.NDBC:BOBF1:1,2018-04-09T06:00:00Z,25.0270,-80.6810,1.5,32.97,1111122 
ENP,ioos.station.NOAA.NDBC:BOBF1:1,2018-04-09T07:00:00Z,25.0270,-80.6810,1.5,33.12,1111122 
ENP,ioos.station.NOAA.NDBC:BOBF1:1,2018-04-09T08:00:00Z,25.0270,-80.6810,1.5,33.12,1111122 
ENP,ioos.station.NOAA.NDBC:BOBF1:1,2018-04-09T09:00:00Z,25.0270,-80.6810,1.5,33.19,1111122 
ENP,ioos.station.NOAA.NDBC:BOBF1:1,2018-04-09T10:00:00Z,25.0270,-80.6810,1.5,33.12,1111122 
ENP,ioos.station.NOAA.NDBC:BOBF1:1,2018-04-09T11:00:00Z,25.0270,-80.6810,1.5,33.12,1111122 
ENP,ioos.station.NOAA.NDBC:BOBF1:1,2018-04-09T12:00:00Z,25.0270,-80.6810,1.5,33.04,1111122 
ENP,ioos.station.NOAA.NDBC:BOBF1:1,2018-04-09T13:00:00Z,25.0270,-80.6810,1.5,32.97,1111122 
ENP,ioos.station.NOAA.NDBC:BOBF1:1,2018-04-09T14:00:00Z,25.0270,-80.6810,1.5,32.97,1111122 
ENP,ioos.station.NOAA.NDBC:BOBF1:1,2018-04-09T15:00:00Z,25.0270,-80.6810,1.5,32.97,1111122 
ENP,ioos.station.NOAA.NDBC:BOBF1:1,2018-04-09T16:00:00Z,25.0270,-80.6810,1.5,33.12,1111122 
ENP,ioos.station.NOAA.NDBC:BOBF1:1,2018-04-09T17:00:00Z,25.0270,-80.6810,1.5,33.12,1111122 
ENP,ioos.station.NOAA.NDBC:BOBF1:1,2018-04-11T18:00:00Z,25.0270,-80.6810,1.5,33.41,1111122 
ENP,ioos.station.NOAA.NDBC:BOBF1:1,2018-04-11T20:00:00Z,25.0270,-80.6810,1.5,33.33,1111122 
ENP,ioos.station.NOAA.NDBC:BOBF1:1,2018-04-11T21:00:00Z,25.0270,-80.6810,1.5,33.33,1111122 
ENP,ioos.station.NOAA.NDBC:BOBF1:1,2018-04-11T22:00:00Z,25.0270,-80.6810,1.5,33.41,1111122 
ENP,ioos.station.NOAA.NDBC:BOBF1:1,2018-04-11T23:00:00Z,25.0270,-80.6810,1.5,33.48,1111122 
ENP,ioos.station.NOAA.NDBC:BOBF1:1,2018-04-12T00:00:00Z,25.0270,-80.6810,1.5,33.48,1111122 
ENP,ioos.station.NOAA.NDBC:BOBF1:1,2018-04-12T01:00:00Z,25.0270,-80.6810,1.5,33.48,1111122 
ENP,ioos.station.NOAA.NDBC:BOBF1:1,2018-04-12T02:00:00Z,25.0270,-80.6810,1.5,33.55,1111122 
ENP,ioos.station.NOAA.NDBC:BOBF1:1,2018-04-12T03:00:00Z,25.0270,-80.6810,1.5,33.63,1111122 
ENP,ioos.station.NOAA.NDBC:BOBF1:1,2018-04-12T04:00:00Z,25.0270,-80.6810,1.5,33.63,1111122 
ENP,ioos.station.NOAA.NDBC:BOBF1:1,2018-04-12T06:00:00Z,25.0270,-80.6810,1.5,33.63,1111122 
ENP,ioos.station.NOAA.NDBC:BOBF1:1,2018-04-12T08:00:00Z,25.0270,-80.6810,1.5,33.63,1111122 
ENP,ioos.station.NOAA.NDBC:BOBF1:1,2018-04-12T09:00:00Z,25.0270,-80.6810,1.5,33.63,1111122 
ENP,ioos.station.NOAA.NDBC:BOBF1:1,2018-04-12T10:00:00Z,25.0270,-80.6810,1.5,33.63,1111122 
ENP,ioos.station.NOAA.NDBC:BOBF1:1,2018-04-12T11:00:00Z,25.0270,-80.6810,1.5,33.63,1111122 
ENP,ioos.station.NOAA.NDBC:BOBF1:1,2018-04-12T12:00:00Z,25.0270,-80.6810,1.5,33.63,1111122 
ENP,ioos.station.NOAA.NDBC:BOBF1:1,2018-04-12T13:00:00Z,25.0270,-80.6810,1.5,33.7,1111122 
ENP,ioos.station.NOAA.NDBC:BOBF1:1,2018-04-12T14:00:00Z,25.0270,-80.6810,1.5,33.63,1111122 
ENP,ioos.station.NOAA.NDBC:BOBF1:1,2018-04-12T20:00:00Z,25.0270,-80.6810,1.5,33.63,1111122 
ENP,ioos.station.NOAA.NDBC:BOBF1:1,2018-04-12T21:00:00Z,25.0270,-80.6810,1.5,33.55,1111122 
ENP,ioos.station.NOAA.NDBC:BOBF1:1,2018-04-12T22:00:00Z,25.0270,-80.6810,1.5,33.55,1111122 
ENP,ioos.station.NOAA.NDBC:BOBF1:1,2018-04-12T23:00:00Z,25.0270,-80.6810,1.5,33.63,1111122 
ENP,ioos.station.NOAA.NDBC:BOBF1:1,2018-04-13T00:00:00Z,25.0270,-80.6810,1.5,33.7,1111122 
ENP,ioos.station.NOAA.NDBC:BOBF1:1,2018-04-13T01:00:00Z,25.0270,-80.6810,1.5,33.77,1111122 
ENP,ioos.station.NOAA.NDBC:BOBF1:1,2018-04-13T02:00:00Z,25.0270,-80.6810,1.5,33.7,1111122 
ENP,ioos.station.NOAA.NDBC:BOBF1:1,2018-04-13T03:00:00Z,25.0270,-80.6810,1.5,33.77,1111122 
ENP,ioos.station.NOAA.NDBC:BOBF1:1,2018-04-13T04:00:00Z,25.0270,-80.6810,1.5,33.85,1111122 
ENP,ioos.station.NOAA.NDBC:BOBF1:1,2018-04-13T06:00:00Z,25.0270,-80.6810,1.5,33.85,1111122 
ENP,ioos.station.NOAA.NDBC:BOBF1:1,2018-04-13T07:00:00Z,25.0270,-80.6810,1.5,33.77,1111122 
ENP,ioos.station.NOAA.NDBC:BOBF1:1,2018-04-13T08:00:00Z,25.0270,-80.6810,1.5,33.85,1111122 
ENP,ioos.station.NOAA.NDBC:BOBF1:1,2018-04-13T09:00:00Z,25.0270,-80.6810,1.5,33.7,1111122 
ENP,ioos.station.NOAA.NDBC:BOBF1:1,2018-04-13T10:00:00Z,25.0270,-80.6810,1.5,33.7,1111122 
ENP,ioos.station.NOAA.NDBC:BOBF1:1,2018-04-13T11:00:00Z,25.0270,-80.6810,1.5,33.7,1111122 
ENP,ioos.station.NOAA.NDBC:BOBF1:1,2018-04-13T12:00:00Z,25.0270,-80.6810,1.5,33.7,1111122 
ENP,ioos.station.NOAA.NDBC:BOBF1:1,2018-04-13T13:00:00Z,25.0270,-80.6810,1.5,33.77,1111122 
ENP,ioos.station.NOAA.NDBC:BOBF1:1,2018-04-13T14:00:00Z,25.0270,-80.6810,1.5,33.85,1111122 
ENP,ioos.station.NOAA.NDBC:BOBF1:1,2018-04-13T15:00:00Z,25.0270,-80.6810,1.5,33.85,1111122 
ENP,ioos.station.NOAA.NDBC:BOBF1:1,2018-04-13T16:00:00Z,25.0270,-80.6810,1.5,33.85,1111122 
ENP,ioos.station.NOAA.NDBC:BOBF1:1,2018-04-13T17:00:00Z,25.0270,-80.6810,1.5,33.85,1111122 
ENP,ioos.station.NOAA.NDBC:BOBF1:1,2018-04-13T19:00:00Z,25.0270,-80.6810,1.5,33.77,1111122 
ENP,ioos.station.NOAA.NDBC:BOBF1:1,2018-04-13T20:00:00Z,25.0270,-80.6810,1.5,33.7,1111122 
ENP,ioos.station.NOAA.NDBC:BOBF1:1,2018-04-13T21:00:00Z,25.0270,-80.6810,1.5,33.7,1111122 
ENP,ioos.station.NOAA.NDBC:BOBF1:1,2018-04-13T22:00:00Z,25.0270,-80.6810,1.5,33.77,1111122 
ENP,ioos.station.NOAA.NDBC:BOBF1:1,2018-04-13T23:00:00Z,25.0270,-80.6810,1.5,33.77,1111122 
ENP,ioos.station.NOAA.NDBC:BOBF1:1,2018-04-14T00:00:00Z,25.0270,-80.6810,1.5,33.77,1111122 
ENP,ioos.station.NOAA.NDBC:BOBF1:1,2018-04-14T01:00:00Z,25.0270,-80.6810,1.5,33.77,1111122 
ENP,ioos.station.NOAA.NDBC:BOBF1:1,2018-04-14T02:00:00Z,25.0270,-80.6810,1.5,33.85,1111122 
ENP,ioos.station.NOAA.NDBC:BOBF1:1,2018-04-14T03:00:00Z,25.0270,-80.6810,1.5,33.85,1111122 
ENP,ioos.station.NOAA.NDBC:BOBF1:1,2018-04-14T04:00:00Z,25.0270,-80.6810,1.5,33.92,1111122 
ENP,ioos.station.NOAA.NDBC:BOBF1:1,2018-04-14T06:00:00Z,25.0270,-80.6810,1.5,34.0,1111122 
ENP,ioos.station.NOAA.NDBC:BOBF1:1,2018-04-14T07:00:00Z,25.0270,-80.6810,1.5,34.0,1111122 
ENP,ioos.station.NOAA.NDBC:BOBF1:1,2018-04-14T08:00:00Z,25.0270,-80.6810,1.5,34.0,1111122 
ENP,ioos.station.NOAA.NDBC:BOBF1:1,2018-04-14T09:00:00Z,25.0270,-80.6810,1.5,34.0,1111122 
ENP,ioos.station.NOAA.NDBC:BOBF1:1,2018-04-14T10:00:00Z,25.0270,-80.6810,1.5,34.0,1111122 
ENP,ioos.station.NOAA.NDBC:BOBF1:1,2018-04-14T11:00:00Z,25.0270,-80.6810,1.5,34.07,1111122 
ENP,ioos.station.NOAA.NDBC:BOBF1:1,2018-04-14T12:00:00Z,25.0270,-80.6810,1.5,34.07,1111122 
ENP,ioos.station.NOAA.NDBC:BOBF1:1,2018-04-14T13:00:00Z,25.0270,-80.6810,1.5,34.07,1111122 
ENP,ioos.station.NOAA.NDBC:BOBF1:1,2018-04-14T14:00:00Z,25.0270,-80.6810,1.5,34.0,1111122 
ENP,ioos.station.NOAA.NDBC:BOBF1:1,2018-04-14T15:00:00Z,25.0270,-80.6810,1.5,34.0,1111122 
ENP,ioos.station.NOAA.NDBC:BOBF1:1,2018-04-14T16:00:00Z,25.0270,-80.6810,1.5,33.85,1111122 
ENP,ioos.station.NOAA.NDBC:BOBF1:1,2018-04-14T17:00:00Z,25.0270,-80.6810,1.5,33.92,1111122 
ENP,ioos.station.NOAA.NDBC:BOBF1:1,2018-04-14T18:00:00Z,25.0270,-80.6810,1.5,33.85,1111122 
ENP,ioos.station.NOAA.NDBC:BOBF1:1,2018-04-14T19:00:00Z,25.0270,-80.6810,1.5,33.92,1111122 
ENP,ioos.station.NOAA.NDBC:BOBF1:1,2018-04-14T20:00:00Z,25.0270,-80.6810,1.5,33.85,1111122 
ENP,ioos.station.NOAA.NDBC:BOBF1:1,2018-04-14T21:00:00Z,25.0270,-80.6810,1.5,33.85,1111122 
ENP,ioos.station.NOAA.NDBC:BOBF1:1,2018-04-14T22:00:00Z,25.0270,-80.6810,1.5,33.92,1111122 
ENP,ioos.station.NOAA.NDBC:BOBF1:1,2018-04-14T23:00:00Z,25.0270,-80.6810,1.5,33.92,1111122 
ENP,ioos.station.NOAA.NDBC:BOBF1:1,2018-04-15T00:00:00Z,25.0270,-80.6810,1.5,33.92,1111122 
ENP,ioos.station.NOAA.NDBC:BOBF1:1,2018-04-15T01:00:00Z,25.0270,-80.6810,1.5,33.92,1111122 
ENP,ioos.station.NOAA.NDBC:BOBF1:1,2018-04-15T02:00:00Z,25.0270,-80.6810,1.5,33.92,1111122 
ENP,ioos.station.NOAA.NDBC:BOBF1:1,2018-04-15T03:00:00Z,25.0270,-80.6810,1.5,34.07,1111122 
ENP,ioos.station.NOAA.NDBC:BOBF1:1,2018-04-15T04:00:00Z,25.0270,-80.6810,1.5,34.07,1111122 
ENP,ioos.station.NOAA.NDBC:BOBF1:1,2018-04-15T06:00:00Z,25.0270,-80.6810,1.5,33.7,1111122 
ENP,ioos.station.NOAA.NDBC:BOBF1:1,2018-04-15T07:00:00Z,25.0270,-80.6810,1.5,34.07,1111122 
ENP,ioos.station.NOAA.NDBC:BOBF1:1,2018-04-15T08:00:00Z,25.0270,-80.6810,1.5,34.07,1111122 
ENP,ioos.station.NOAA.NDBC:BOBF1:1,2018-04-15T09:00:00Z,25.0270,-80.6810,1.5,34.14,1111122 
ENP,ioos.station.NOAA.NDBC:BOBF1:1,2018-04-15T10:00:00Z,25.0270,-80.6810,1.5,34.14,1111122 
ENP,ioos.station.NOAA.NDBC:BOBF1:1,2018-04-15T11:00:00Z,25.0270,-80.6810,1.5,34.14,1111122 
ENP,ioos.station.NOAA.NDBC:BOBF1:1,2018-04-15T13:00:00Z,25.0270,-80.6810,1.5,34.22,1111122 
ENP,ioos.station.NOAA.NDBC:BOBF1:1,2018-04-15T15:00:00Z,25.0270,-80.6810,1.5,34.22,1111122 
ENP,ioos.station.NOAA.NDBC:BOBF1:1,2018-04-15T17:00:00Z,25.0270,-80.6810,1.5,34.14,1111122 
ENP,ioos.station.NOAA.NDBC:BOBF1:1,2018-04-15T19:00:00Z,25.0270,-80.6810,1.5,34.14,1111122 
ENP,ioos.station.NOAA.NDBC:BOBF1:1,2018-04-15T21:00:00Z,25.0270,-80.6810,1.5,34.07,1111122 
ENP,ioos.station.NOAA.NDBC:BOBF1:1,2018-04-15T22:00:00Z,25.0270,-80.6810,1.5,34.14,1111122 
ENP,ioos.station.NOAA.NDBC:BOBF1:1,2018-04-15T23:00:00Z,25.0270,-80.6810,1.5,34.22,1111122 
ENP,ioos.station.NOAA.NDBC:BOBF1:1,2018-04-16T00:00:00Z,25.0270,-80.6810,1.5,34.22,1111122 
ENP,ioos.station.NOAA.NDBC:BOBF1:1,2018-04-16T01:00:00Z,25.0270,-80.6810,1.5,33.55,1111122 
ENP,ioos.station.NOAA.NDBC:BOBF1:1,2018-04-16T02:00:00Z,25.0270,-80.6810,1.5,33.33,1111122 
ENP,ioos.station.NOAA.NDBC:BOBF1:1,2018-04-16T03:00:00Z,25.0270,-80.6810,1.5,33.33,1111122 
ENP,ioos.station.NOAA.NDBC:BOBF1:1,2018-04-16T04:00:00Z,25.0270,-80.6810,1.5,33.12,1111122 
ENP,ioos.station.NOAA.NDBC:BOBF1:1,2018-04-16T06:00:00Z,25.0270,-80.6810,1.5,33.19,1111122 
ENP,ioos.station.NOAA.NDBC:BOBF1:1,2018-04-16T07:00:00Z,25.0270,-80.6810,1.5,33.19,1111122 
ENP,ioos.station.NOAA.NDBC:BOBF1:1,2018-04-16T08:00:00Z,25.0270,-80.6810,1.5,33.19,1111122 
ENP,ioos.station.NOAA.NDBC:BOBF1:1,2018-04-16T09:00:00Z,25.0270,-80.6810,1.5,33.26,1111122 
ENP,ioos.station.NOAA.NDBC:BOBF1:1,2018-04-16T10:00:00Z,25.0270,-80.6810,1.5,33.33,1111122 
ENP,ioos.station.NOAA.NDBC:BOBF1:1,2018-04-16T11:00:00Z,25.0270,-80.6810,1.5,33.33,1111122 
ENP,ioos.station.NOAA.NDBC:BOBF1:1,2018-04-16T12:00:00Z,25.0270,-80.6810,1.5,33.33,1111122 
ENP,ioos.station.NOAA.NDBC:BOBF1:1,2018-04-16T13:00:00Z,25.0270,-80.6810,1.5,33.33,1111122 
ENP,ioos.station.NOAA.NDBC:BOBF1:1,2018-04-16T14:00:00Z,25.0270,-80.6810,1.5,33.33,1111122 
ENP,ioos.station.NOAA.NDBC:BOBF1:1,2018-04-16T15:00:00Z,25.0270,-80.6810,1.5,33.33,1111122 
ENP,ioos.station.NOAA.NDBC:BOBF1:1,2018-04-16T16:00:00Z,25.0270,-80.6810,1.5,33.33,1111122 
ENP,ioos.station.NOAA.NDBC:BOBF1:1,2018-04-16T17:00:00Z,25.0270,-80.6810,1.5,33.26,1111122 
ENP,ioos.station.NOAA.NDBC:BOBF1:1,2018-04-16T18:00:00Z,25.0270,-80.6810,1.5,33.33,1111122 
ENP,ioos.station.NOAA.NDBC:BOBF1:1,2018-04-16T19:00:00Z,25.0270,-80.6810,1.5,33.26,1111122 
ENP,ioos.station.NOAA.NDBC:BOBF1:1,2018-04-16T20:00:00Z,25.0270,-80.6810,1.5,33.26,1111122 
ENP,ioos.station.NOAA.NDBC:BOBF1:1,2018-04-16T21:00:00Z,25.0270,-80.6810,1.5,33.26,1111122 
ENP,ioos.station.NOAA.NDBC:BOBF1:1,2018-04-16T22:00:00Z,25.0270,-80.6810,1.5,33.19,1111122 
ENP,ioos.station.NOAA.NDBC:BOBF1:1,2018-04-16T23:00:00Z,25.0270,-80.6810,1.5,33.12,1111122 
ENP,ioos.station.NOAA.NDBC:BOBF1:1,2018-04-17T00:00:00Z,25.0270,-80.6810,1.5,33.12,1111122 
ENP,ioos.station.NOAA.NDBC:BOBF1:1,2018-04-17T01:00:00Z,25.0270,-80.6810,1.5,33.12,1111122 
ENP,ioos.station.NOAA.NDBC:BOBF1:1,2018-04-17T02:00:00Z,25.0270,-80.6810,1.5,33.19,1111122 
ENP,ioos.station.NOAA.NDBC:BOBF1:1,2018-04-17T03:00:00Z,25.0270,-80.6810,1.5,33.26,1111122 
ENP,ioos.station.NOAA.NDBC:BOBF1:1,2018-04-17T04:00:00Z,25.0270,-80.6810,1.5,33.26,1111122 
ENP,ioos.station.NOAA.NDBC:BOBF1:1,2018-04-17T07:00:00Z,25.0270,-80.6810,1.5,33.12,1111122 
ENP,ioos.station.NOAA.NDBC:BOBF1:1,2018-04-17T08:00:00Z,25.0270,-80.6810,1.5,33.04,1111122 
ENP,ioos.station.NOAA.NDBC:BOBF1:1,2018-04-17T09:00:00Z,25.0270,-80.6810,1.5,33.19,1111122 
ENP,ioos.station.NOAA.NDBC:BOBF1:1,2018-04-17T10:00:00Z,25.0270,-80.6810,1.5,33.48,1111122 
ENP,ioos.station.NOAA.NDBC:BOBF1:1,2018-04-17T11:00:00Z,25.0270,-80.6810,1.5,33.55,1111122 
ENP,ioos.station.NOAA.NDBC:BOBF1:1,2018-04-17T12:00:00Z,25.0270,-80.6810,1.5,33.55,1111122 
ENP,ioos.station.NOAA.NDBC:BOBF1:1,2018-04-17T13:00:00Z,25.0270,-80.6810,1.5,33.55,1111122 
ENP,ioos.station.NOAA.NDBC:BOBF1:1,2018-04-17T14:00:00Z,25.0270,-80.6810,1.5,33.63,1111122 
ENP,ioos.station.NOAA.NDBC:BOBF1:1,2018-04-17T15:00:00Z,25.0270,-80.6810,1.5,33.55,1111122 
ENP,ioos.station.NOAA.NDBC:BOBF1:1,2018-04-17T16:00:00Z,25.0270,-80.6810,1.5,33.63,1111122 